Location: Weingarten
(37.8876°N, 90.2146°W)
Time: 13:01:08
(UTC+00:00)

Hubble Space Telescope - Visible Passes

Search period start: 11 October 2024 00:00
Search period end: 21 October 2024 00:00
Orbit: 503 x 507 km, 28.5° (Epoch: 11 October)

Date Brightness Start Highest point End Pass type
(mag) Time Alt. Az. Time Alt. Az. Time Alt. Az.
16 Oct 3.1 00:52:08 10° S 00:53:01 11° SSE 00:53:01 11° SSE visible
17 Oct 2.9 00:29:44 10° S 00:31:15 12° SSE 00:32:21 11° SE visible
18 Oct 3.0 00:07:20 10° S 00:09:06 13° SSE 00:10:53 10° SE visible
18 Oct 3.6 01:45:56 10° SW 01:46:09 11° SW 01:46:09 11° SW visible
18 Oct 3.0 23:44:54 10° SSW 23:46:51 13° SSE 23:48:50 10° SE visible
19 Oct 2.9 01:23:41 10° SW 01:25:13 17° SSW 01:25:13 17° SSW visible
20 Oct 2.5 01:01:20 10° SW 01:04:09 20° S 01:04:09 20° S visible
